Location: Alexander
(41.3564°N, 81.5960°W)
Time: 08:53:18
(UTC+00:00)

Cosmos 2263 Rocket - Pass Details

Date: 24 January 2021
Orbit: 825 x 847 km, 71.0° (Epoch: 02 March)

Event Time Altitude Azimuth Distance (km) Brightness Sun altitude
Rises 22:53:57 0° 237° (WSW) 3,397 7.6 -4.4°
Reaches altitude 10° 22:56:48 10° 250° (WSW) 2,464 6.6 -4.9°
Maximum altitude 23:01:27 26° 306° (NW) 1,617 4.1 -5.7°
Drops below altitude 10° 23:06:07 10° 2° (N) 2,466 4.4 -6.6°
Sets 23:09:00 0° 15° (NNE) 3,400 5.0 -7.1°
